Simultaneous Nadir Overpasses (SNOs) Predictions

Prediction of SNOs between METOP-B and NOAA-19 Satellite Orbit:

Table of predicted SNOs for the next 14.0 days since TLE Epoch: 1/5/2014
Index Date (METOP-B) Time (METOP-B) Lat,Lon (METOP-B) SZA (METOP-B ) Date (NOAA-19) Time (NOAA-19) Lat,Lon (NOAA-19) SZA (NOAA-19 ) Distance(km) Time Diff (sec)
1 01/11/2014 20:23:50 73.67,-131.65 95.43 01/11/2014 20:22:43 73.65,-131.62 95.42 2.03 67
2 01/11/2014 21:14:32 -73.66, 35.65 84.59 01/11/2014 21:13:40 -73.67, 35.59 84.57 2.37 52
3 01/11/2014 22:05:12 73.65,-157.04 95.40 01/11/2014 22:04:47 73.65,-157.13 95.41 2.78 25
4 01/11/2014 22:55:54 -73.64, 10.26 84.62 01/11/2014 22:55:43 -73.62, 10.20 84.64 2.85 11
5 01/11/2014 23:46:35 73.58, 177.45 95.32 01/11/2014 23:46:50 73.60, 177.48 95.34 2.37 15
6
